Meath Environmental Platform

Observations for Trim Market St

Time AQI Temp °C Hum % Pres Pa CO μg/m³ H₂S μg/m³ NO μg/m³ NO₂ μg/m³ O₃ μg/m³ SO₂ μg/m³ PM1 μg/m³ PM2.5 μg/m³ PM10 μg/m³
Tuesday 18 August 2026
01:51 2 19.4 79 2,147,483,647 0.02 0 1.93 1.22 61.93 0 0.71 2.17 4.66
01:50 2 19.4 79 2,147,483,647 0.01 0 1.93 1.29 55.86 0 0.71 2.64 5.23
01:49 2 19.5 79 2,147,483,647 0 0 1.95 1.06 50.87 0 0.71 2.63 6.38
01:48 2 19.5 79 2,147,483,647 0.02 0 1.94 1.05 57.77 0 0.71 2.64 5.81
01:47 2 19.5 79 2,147,483,647 0 0 1.95 1.07 53.66 0 1.43 3.59 6.38
01:46 2 19.5 79 2,147,483,647 0.02 0 1.95 1.06 53.18 0 0.71 2.16 5.24
01:45 2 19.5 79 2,147,483,647 0.02 0 1.94 0.99 53.87 0 0.71 2.17 5.81
01:44 2 19.5 79 2,147,483,647 0 0 1.96 1.06 51.48 0 0.71 2.63 5.24
01:43 2 19.5 79 2,147,483,647 0 0 1.95 1.09 51.67 0 0.71 2.17 4.66
01:42 2 19.5 79 2,147,483,647 0.02 0 1.94 1.1 61.27 0 0.71 2.64 5.23
01:41 2 19.5 79 2,147,483,647 0 0 1.94 0.91 49.34 0 0.71 2.64 5.23
01:40 2 19.5 79 2,147,483,647 0 0 1.95 1.17 57.1 0 0.71 2.17 4.66
01:39 2 19.5 79 2,147,483,647 0 0 1.94 1.05 59.53 0 0.71 3.11 5.81
01:36 2 19.5 79 2,147,483,647 0 0 1.89 1.11 53.15 0 1.43 3.59 6.96
01:33 2 19.6 79 2,147,483,647 0.01 0 1.96 0.84 55.44 0 0.71 2.64 5.23
01:30 2 19.6 79 2,147,483,647 0 0 1.95 1 50.62 0 2.14 3.12 6.38
01:28 2 19.6 79 2,147,483,647 0 0 1.95 0.92 55.29 0 0.71 3.12 5.81
01:21 2 19.7 79 2,147,483,647 0.01 0 1.96 0.83 49.83 0 1.43 3.59 6.38
01:20 2 19.7 79 2,147,483,647 0.01 0 1.96 0.78 54.29 0 2.14 4.07 6.96
01:19 2 19.7 79 2,147,483,647 0.01 0 1.96 0.83 50.08 0 1.43 3.12 5.81